Location: Kermapucano
(48.0667°N, 3.3000°W)
Time: 20:50:20
(UTC+00:00)

Cosmos 1680 Rocket - Pass Details

Date: 29 November 2020
Orbit: 760 x 781 km, 74.1° (Epoch: 27 January)

Event Time Altitude Azimuth Distance (km) Brightness Sun altitude
Exits shadow 05:59:59 24° 306° (NW) 1,585 4.6 -16.1°
Maximum altitude 06:02:27 37° 258° (WSW) 1,208 4.1 -15.7°
Drops below altitude 10° 06:07:16 10° 192° (SSW) 2,326 6.0 -15.0°
Sets 06:09:47 0° 184° (S) 3,247 6.9 -14.5°
